Stündliche Wetter Warnikajmy

Heute, 24 Oktober, Samstag

Zeit Temperatur Niederschläge Wind Luftdruck Luftfeuchtigkeit
00:00 +11°C° 0 mm 1 m/S 752 mmHg 92%
01:00 +11°C° 0 mm 1 m/S 752 mmHg 92%
02:00 +11°C° 1.1 mm 1 m/S 752 mmHg 93%
03:00 +11°C° 1.1 mm 1 m/S 752 mmHg 94%
04:00 +10°C° 1.1 mm 0 m/S 751 mmHg 95%
05:00 +11°C° 0.4 mm 1 m/S 752 mmHg 96%
06:00 +11°C° 0.4 mm 1 m/S 752 mmHg 96%
07:00 +11°C° 0.4 mm 1 m/S 752 mmHg 96%
08:00 +12°C° 0 mm 2 m/S 752 mmHg 92%
09:00 +13°C° 0 mm 2 m/S 753 mmHg 88%
10:00 +12°C° 0 mm 3 m/S 753 mmHg 83%
11:00 +13°C° 0 mm 3 m/S 753 mmHg 81%
12:00 +14°C° 0 mm 4 m/S 753 mmHg 78%
13:00 +14°C° 0 mm 5 m/S 753 mmHg 75%
14:00 +14°C° 0 mm 4 m/S 753 mmHg 78%
15:00 +13°C° 0 mm 4 m/S 753 mmHg 81%
16:00 +13°C° 0 mm 3 m/S 753 mmHg 84%
17:00 +12°C° 0.1 mm 3 m/S 754 mmHg 87%
18:00 +11°C° 0.1 mm 3 m/S 754 mmHg 90%
19:00 +11°C° 0.1 mm 3 m/S 755 mmHg 93%
20:00 +10°C° 0 mm 3 m/S 755 mmHg 93%
21:00 +10°C° 0 mm 3 m/S 755 mmHg 93%
22:00 +10°C° 0 mm 3 m/S 755 mmHg 94%
23:00 +10°C° 0 mm 3 m/S 755 mmHg 93%

Morgen, 25 Oktober, Sonntag

Zeit Temperatur Niederschläge Wind Luftdruck Luftfeuchtigkeit
00:00 +9°C° 0 mm 3 m/S 755 mmHg 93%
01:00 +9°C° 0 mm 3 m/S 756 mmHg 93%
02:00 +9°C° 0 mm 3 m/S 756 mmHg 93%
03:00 +9°C° 0 mm 3 m/S 756 mmHg 93%
04:00 +9°C° 0 mm 3 m/S 755 mmHg 93%
05:00 +9°C° 0 mm 3 m/S 756 mmHg 94%
06:00 +9°C° 0 mm 3 m/S 756 mmHg 94%
07:00 +9°C° 0 mm 3 m/S 756 mmHg 94%
08:00 +10°C° 0 mm 3 m/S 756 mmHg 90%
09:00 +12°C° 0 mm 3 m/S 756 mmHg 85%
10:00 +13°C° 0 mm 4 m/S 756 mmHg 81%
11:00 +14°C° 0 mm 4 m/S 756 mmHg 78%
12:00 +14°C° 0 mm 4 m/S 756 mmHg 75%
13:00 +15°C° 0 mm 4 m/S 756 mmHg 71%
14:00 +14°C° 0 mm 3 m/S 756 mmHg 76%
15:00 +13°C° 0 mm 3 m/S 755 mmHg 81%
16:00 +12°C° 0 mm 3 m/S 755 mmHg 85%
17:00 +12°C° 0 mm 3 m/S 755 mmHg 87%
18:00 +11°C° 0 mm 3 m/S 755 mmHg 89%
19:00 +11°C° 0 mm 4 m/S 756 mmHg 91%
20:00 +11°C° 0 mm 4 m/S 756 mmHg 91%
21:00 +10°C° 0 mm 4 m/S 755 mmHg 91%
22:00 +10°C° 0 mm 4 m/S 755 mmHg 91%
23:00 +10°C° 0 mm 4 m/S 755 mmHg 91%

übermorgen, 26 Oktober, Montag

Zeit Temperatur Niederschläge Wind Luftdruck Luftfeuchtigkeit
00:00 +10°C° 0 mm 4 m/S 755 mmHg 91%
01:00 +10°C° 0 mm 4 m/S 755 mmHg 91%
02:00 +10°C° 0 mm 4 m/S 754 mmHg 90%
03:00 +8°C° 0 mm 4 m/S 754 mmHg 90%
04:00 +8°C° 0 mm 4 m/S 754 mmHg 90%
05:00 +8°C° 0 mm 4 m/S 754 mmHg 91%
06:00 +8°C° 0 mm 5 m/S 753 mmHg 92%
07:00 +8°C° 0 mm 5 m/S 753 mmHg 93%
08:00 +9°C° 0 mm 5 m/S 753 mmHg 91%
09:00 +10°C° 0 mm 5 m/S 753 mmHg 90%
10:00 +12°C° 0 mm 5 m/S 752 mmHg 88%
11:00 +12°C° 0 mm 5 m/S 752 mmHg 87%
12:00 +13°C° 0 mm 5 m/S 752 mmHg 87%
13:00 +13°C° 0 mm 5 m/S 752 mmHg 86%
14:00 +13°C° 0 mm 5 m/S 752 mmHg 86%
15:00 +13°C° 0 mm 4 m/S 751 mmHg 87%
16:00 +13°C° 0 mm 4 m/S 751 mmHg 88%
17:00 +13°C° 0 mm 4 m/S 751 mmHg 88%
18:00 +13°C° 0 mm 4 m/S 751 mmHg 88%
19:00 +13°C° 0 mm 4 m/S 752 mmHg 88%
20:00 +13°C° 0.1 mm 4 m/S 751 mmHg 87%
21:00 +13°C° 0.1 mm 4 m/S 751 mmHg 86%
22:00 +13°C° 0.1 mm 5 m/S 751 mmHg 85%
23:00 +13°C° 0 mm 5 m/S 751 mmHg 86%

, 27 Oktober, Dienstag

Zeit Temperatur Niederschläge Wind Luftdruck Luftfeuchtigkeit
00:00 +13°C° 0 mm 5 m/S 751 mmHg 87%
01:00 +12°C° 0 mm 5 m/S 751 mmHg 88%
02:00 +12°C° 0 mm 4 m/S 751 mmHg 89%
03:00 +12°C° 0 mm 4 m/S 751 mmHg 90%
04:00 +12°C° 0 mm 4 m/S 751 mmHg 91%
05:00 +11°C° 0 mm 4 m/S 751 mmHg 92%
06:00 +11°C° 0 mm 4 m/S 752 mmHg 93%
07:00 +11°C° 0 mm 3 m/S 752 mmHg 94%
08:00 +11°C° 0 mm 3 m/S 752 mmHg 91%
09:00 +12°C° 0 mm 3 m/S 752 mmHg 88%
10:00 +13°C° 0 mm 3 m/S 753 mmHg 86%
11:00 +13°C° 0 mm 3 m/S 753 mmHg 85%
12:00 +13°C° 0 mm 3 m/S 753 mmHg 85%
13:00 +14°C° 0 mm 3 m/S 753 mmHg 85%
14:00 +14°C° 0 mm 3 m/S 752 mmHg 85%
15:00 +14°C° 0 mm 3 m/S 752 mmHg 85%
16:00 +14°C° 0 mm 3 m/S 752 mmHg 85%
17:00 +14°C° 0 mm 4 m/S 752 mmHg 84%
18:00 +14°C° 0 mm 4 m/S 752 mmHg 84%
19:00 +14°C° 0 mm 5 m/S 752 mmHg 83%
20:00 +13°C° 0.2 mm 5 m/S 752 mmHg 85%
21:00 +13°C° 0.2 mm 4 m/S 753 mmHg 86%
22:00 +13°C° 0.2 mm 3 m/S 753 mmHg 88%
23:00 +13°C° 0.4 mm 3 m/S 753 mmHg 90%

27 Oktober, Dienstag

Zeit Temperatur Niederschläge Wind Luftdruck Luftfeuchtigkeit
00:00 +13°C° 0 mm 5 m/S 751 mmHg 87%
01:00 +12°C° 0 mm 5 m/S 751 mmHg 88%
02:00 +12°C° 0 mm 4 m/S 751 mmHg 89%
03:00 +12°C° 0 mm 4 m/S 751 mmHg 90%
04:00 +12°C° 0 mm 4 m/S 751 mmHg 91%
05:00 +11°C° 0 mm 4 m/S 751 mmHg 92%
06:00 +11°C° 0 mm 4 m/S 752 mmHg 93%
07:00 +11°C° 0 mm 3 m/S 752 mmHg 94%
08:00 +11°C° 0 mm 3 m/S 752 mmHg 91%
09:00 +12°C° 0 mm 3 m/S 752 mmHg 88%
10:00 +13°C° 0 mm 3 m/S 753 mmHg 86%
11:00 +13°C° 0 mm 3 m/S 753 mmHg 85%
12:00 +13°C° 0 mm 3 m/S 753 mmHg 85%
13:00 +14°C° 0 mm 3 m/S 753 mmHg 85%
14:00 +14°C° 0 mm 3 m/S 752 mmHg 85%
15:00 +14°C° 0 mm 3 m/S 752 mmHg 85%
16:00 +14°C° 0 mm 3 m/S 752 mmHg 85%
17:00 +14°C° 0 mm 4 m/S 752 mmHg 84%
18:00 +14°C° 0 mm 4 m/S 752 mmHg 84%
19:00 +14°C° 0 mm 5 m/S 752 mmHg 83%
20:00 +13°C° 0.2 mm 5 m/S 752 mmHg 85%
21:00 +13°C° 0.2 mm 4 m/S 753 mmHg 86%
22:00 +13°C° 0.2 mm 3 m/S 753 mmHg 88%
23:00 +13°C° 0.4 mm 3 m/S 753 mmHg 90%

28 Oktober, Mittwoch

Zeit Temperatur Niederschläge Wind Luftdruck Luftfeuchtigkeit
00:00 +12°C° 0.4 mm 3 m/S 753 mmHg 92%
01:00 +12°C° 0.4 mm 3 m/S 754 mmHg 94%
02:00 +11°C° 0.1 mm 3 m/S 754 mmHg 94%
03:00 +11°C° 0.1 mm 3 m/S 754 mmHg 94%
04:00 +10°C° 0.1 mm 2 m/S 754 mmHg 95%
05:00 +10°C° 0 mm 2 m/S 755 mmHg 95%
06:00 +9°C° 0 mm 2 m/S 755 mmHg 95%
07:00 +10°C° 0 mm 1 m/S 755 mmHg 96%
08:00 +10°C° 0 mm 2 m/S 756 mmHg 90%
09:00 +12°C° 0 mm 2 m/S 756 mmHg 85%
10:00 +13°C° 0 mm 2 m/S 756 mmHg 80%
11:00 +13°C° 0 mm 2 m/S 756 mmHg 77%
12:00 +13°C° 0 mm 3 m/S 756 mmHg 74%
13:00 +13°C° 0 mm 3 m/S 756 mmHg 72%
14:00 +13°C° 0 mm 3 m/S 756 mmHg 75%
15:00 +12°C° 0 mm 3 m/S 756 mmHg 79%
16:00 +11°C° 0 mm 3 m/S 755 mmHg 83%
17:00 +11°C° 0 mm 3 m/S 755 mmHg 85%
18:00 +10°C° 0 mm 3 m/S 755 mmHg 87%
19:00 +10°C° 0 mm 3 m/S 755 mmHg 90%
20:00 +10°C° 0 mm 3 m/S 755 mmHg 90%
21:00 +10°C° 0 mm 3 m/S 755 mmHg 90%
22:00 +8°C° 0 mm 4 m/S 755 mmHg 90%
23:00 +8°C° 0 mm 4 m/S 755 mmHg 91%

29 Oktober, Donnerstag

Zeit Temperatur Niederschläge Wind Luftdruck Luftfeuchtigkeit
00:00 +9°C° 0 mm 3 m/S 755 mmHg 92%
01:00 +9°C° 0 mm 3 m/S 755 mmHg 93%
02:00 +9°C° 0 mm 3 m/S 755 mmHg 92%
03:00 +9°C° 0 mm 3 m/S 755 mmHg 92%
04:00 +9°C° 0 mm 3 m/S 755 mmHg 92%
05:00 +8°C° 0 mm 3 m/S 755 mmHg 91%
06:00 +8°C° 0 mm 3 m/S 755 mmHg 90%
07:00 +8°C° 0 mm 3 m/S 755 mmHg 89%
08:00 +8°C° 0 mm 4 m/S 755 mmHg 83%
09:00 +10°C° 0 mm 4 m/S 755 mmHg 77%
10:00 +12°C° 0 mm 5 m/S 755 mmHg 70%
11:00 +12°C° 0 mm 5 m/S 755 mmHg 70%
12:00 +12°C° 0 mm 5 m/S 755 mmHg 70%
13:00 +13°C° 0 mm 5 m/S 755 mmHg 70%
14:00 +12°C° 0 mm 5 m/S 755 mmHg 72%
15:00 +12°C° 0 mm 4 m/S 755 mmHg 74%
16:00 +11°C° 0 mm 4 m/S 755 mmHg 76%
17:00 +11°C° 0 mm 4 m/S 756 mmHg 79%
18:00 +10°C° 0 mm 3 m/S 756 mmHg 82%
19:00 +9°C° 0 mm 3 m/S 757 mmHg 84%
20:00 +8°C° 0 mm 3 m/S 757 mmHg 86%
21:00 +8°C° 0 mm 3 m/S 757 mmHg 87%
22:00 +8°C° 0 mm 3 m/S 758 mmHg 89%
23:00 +8°C° 0 mm 3 m/S 758 mmHg 89%
Mehr zeigen

Wir brauchen deine Erlaubnis

Meteoprog und unser Service Anbieter werden persönliche Daten aufbewahren, so wie Cookies, Geräte Bezeichnung oder ähnliche Technologien von deinem Gerät und Prozess, so wie Persönliche Daten Inhalte und Werbungen, genauso wie social Media und den Verkehr zu analysieren.

  • Aufbewahrung und/oder Zugang zu deiner Geräte Informationen.

    Cookies, Geräte Bezeichnung oder andere Informationen, können aufbewahrt oder Zugang zu deinem Gerät erhalten, für den Grund, der oben angegeben wird.

  • Personalisierte Werbung und Inhalte, Messungen, Einblick in das Publikum und Produkt Entwicklung.

    Werbungen und Inhalte können personalisiert werden, basierend auf ein Profil. Mehr Daten können besser personalisierte Werbungen und Inhalte hinzufügen. Werbung und Inhalte können gezeigt und gemessen werden. Einblicke über das Publikum, welche die Werbung gesehen haben und den Inhalt, können abgeleitet werden. So wie Daten können genutzt werden, um es zu verbessern oder die Benutzer Erfahrung zu verbessern das System und die Software.

Wenn du “Ich stimme zu” klickst, erlaubst du uns, die Cookies zu benutzen die Geräte Bezeichnung, den Web oder ähnliche Technologien zu benutzen. Deine Settings, können in deinem Gerät bei deinem Browser geändert werden.

Für den bestimmten Zweck, berechtigten Interessen beruhen darauf, mehr als auf den Inhalt. Du kannst mehr darüber in unseren Privaten und Cookie Politik lesen.